Alliance, NE

1:13 AM MST on February 08, 2016 (GMT -0700)
Alliance Municipal

Weather History for KAIA - March, 2013

Change the Weather History Date:

Sunday, March 24, 2013

  Actual Average Record
Temperature  
Mean Temperature 16 °F 39 °F  
Max Temperature 30 °F 54 °F 76 °F (1998)
Min Temperature 1 °F 25 °F 0 °F (1965)
Degree Days  
Heating Degree Days 49 26  
Month to date heating degree days 722 710  
Since 1 July heating degree days 5835 6114  
Cooling Degree Days 0 0  
Month to date cooling degree days 0 0  
Year to date cooling degree days 0 0  
Moisture  
Dew Point 8 °F    
Average Humidity 65    
Maximum Humidity 95    
Minimum Humidity 34    
Precipitation  
Precipitation T in 0.05 in 0.70 in (1902)
Month to date precipitation T 0.47  
Year to date precipitation 0.52 1.03  
Sea Level Pressure  
Sea Level Pressure 30.22 in    
Wind  
Wind Speed 14 mph (NNW)    
Max Wind Speed 17 mph    
Max Gust Speed 21 mph    
Visibility 8 miles    
Events Snow    
T = Trace of Precipitation, MM = Missing Value Source: NWS Daily Summary

Daily Weather History Graph

Daily Weather History Graph

Search for Another Location

Airport or City:

Trip Planner

Search our weather history database for the weather conditions in past years. The results will help you decide how hot, cold, wet, or windy it might be!

Date:

Astronomy

Mar. 24, 2013 Rise Set
Actual Time 6:47 AM MDT 7:08 PM MDT
Civil Twilight 6:19 AM MDT 7:36 PM MDT
Nautical Twilight 5:46 AM MDT 8:09 PM MDT
Astronomical Twilight 5:12 AM MDT 8:42 PM MDT
Moon 4:36 PM MDT (3/24) 5:01 AM MDT (3/24)
Length of Visible Light 13h 17m
Length of Day
12h 21m
Waxing Gibbous, 92% of the Moon is Illuminated
Mar 24
Waxing Gibbous
Mar 27
Full
Apr 2
Last Quarter
Apr 10
New
Apr 18
First Quarter

Hourly Weather History & Observations

Time (MDT) Temp. Windchill Dew Point Humidity Pressure Visibility Wind Dir Wind Speed Gust Speed Precip Events Conditions
12:53 AM 15.1 °F 7.7 °F 10.0 °F 80% 30.29 in 10.0 mi North 4.6 mph - N/A   Overcast
1:53 AM 7.0 °F -4.5 °F 5.0 °F 92% 30.30 in 10.0 mi West 6.9 mph - N/A   Scattered Clouds
2:53 AM 6.1 °F -6.8 °F 1.9 °F 83% 30.27 in 10.0 mi WNW 8.1 mph - N/A   Clear
3:53 AM 1.9 °F -12.9 °F -0.9 °F 88% 30.26 in 10.0 mi West 9.2 mph - N/A   Clear
4:53 AM 3.9 °F -10.4 °F 1.0 °F 88% 30.25 in 10.0 mi WNW 9.2 mph - N/A   Clear
5:53 AM 1.0 °F -11.7 °F -2.9 °F 83% 30.26 in 10.0 mi West 6.9 mph - N/A   Clear
6:53 AM 3.9 °F -8.2 °F -0.0 °F 84% 30.26 in 10.0 mi West 6.9 mph - N/A   Clear
7:53 AM 9.0 °F 0.6 °F 3.9 °F 80% 30.26 in 10.0 mi West 4.6 mph - N/A   Clear
8:53 AM 21.0 °F 8.1 °F 12.9 °F 71% 30.22 in 10.0 mi NNW 13.8 mph - N/A   Clear
9:53 AM 27.0 °F 13.2 °F 9.0 °F 47% 30.20 in 10.0 mi NNW 20.7 mph 25.3 mph N/A   Partly Cloudy
10:53 AM 28.9 °F 14.3 °F 3.9 °F 35% 30.19 in 10.0 mi NNW 26.5 mph 35.7 mph N/A   Clear
11:53 AM 28.0 °F 13.6 °F 6.1 °F 39% 30.19 in 10.0 mi NNW 24.2 mph 32.2 mph N/A   Mostly Cloudy
12:53 PM 28.0 °F 13.9 °F 3.9 °F 36% 30.19 in 10.0 mi NW 23.0 mph 32.2 mph N/A   Overcast
1:53 PM 28.0 °F 13.6 °F 3.9 °F 36% 30.21 in 10.0 mi NNW 24.2 mph 36.8 mph N/A   Overcast
2:53 PM 25.0 °F 8.1 °F 1.9 °F 37% 30.22 in 10.0 mi NNW 29.9 mph 41.4 mph N/A   Overcast
3:53 PM 23.0 °F 6.6 °F 10.9 °F 60% 30.27 in 8.0 mi North 25.3 mph 32.2 mph N/A   Mostly Cloudy
3:59 PM 21.2 °F 6.0 °F 14.0 °F 74% 30.09 in 1.5 mi North 19.6 mph 29.9 mph 0.00 in Snow Light Snow
4:01 PM 21.2 °F 6.4 °F 14.0 °F 74% 30.10 in 1.0 mi NNE 18.4 mph 29.9 mph 0.00 in Snow Light Snow
4:04 PM 19.4 °F 5.0 °F 14.0 °F 80% 30.10 in 0.8 mi NNE 16.1 mph 24.2 mph 0.00 in Snow Light Snow
4:11 PM 21.2 °F 8.9 °F 14.0 °F 74% 30.10 in 1.0 mi North 12.7 mph 25.3 mph 0.00 in Snow Light Snow
4:13 PM 21.2 °F 7.3 °F 12.2 °F 68% 30.10 in 1.8 mi North 16.1 mph 25.3 mph 0.00 in Snow Light Snow
4:16 PM 23.0 °F 9.2 °F 12.2 °F 63% 30.10 in 3.0 mi North 17.3 mph 23.0 mph 0.00 in Snow Light Snow
4:27 PM 21.2 °F 6.0 °F 10.4 °F 63% 30.10 in 9.0 mi North 19.6 mph 24.2 mph 0.00 in Snow Light Snow
4:53 PM 25.0 °F 9.5 °F 9.0 °F 51% 30.27 in 10.0 mi North 24.2 mph 28.8 mph 0.00 in   Mostly Cloudy
4:59 PM 21.2 °F 5.2 °F 12.2 °F 68% 30.11 in 1.8 mi North 21.9 mph 28.8 mph 0.00 in Snow Light Snow
5:10 PM 19.4 °F 4.5 °F 12.2 °F 74% 30.12 in 4.0 mi North 17.3 mph - 0.00 in Snow Light Snow
5:14 PM 19.4 °F 5.0 °F 12.2 °F 74% 30.12 in 2.5 mi North 16.1 mph - 0.00 in Snow Light Snow
5:27 PM 19.4 °F 5.5 °F 10.4 °F 68% 30.12 in 9.0 mi North 15.0 mph - 0.00 in   Mostly Cloudy
5:35 PM 21.2 °F 7.3 °F 10.4 °F 63% 30.12 in 10.0 mi North 16.1 mph - 0.00 in   Scattered Clouds
5:53 PM 21.0 °F 8.1 °F 10.9 °F 65% 30.32 in 10.0 mi North 13.8 mph 23.0 mph 0.00 in   Partly Cloudy
6:53 PM 19.0 °F 5.6 °F 7.0 °F 59% 30.33 in 10.0 mi North 13.8 mph - N/A   Clear
7:53 PM 14.0 °F 2.9 °F 7.0 °F 74% 30.35 in 10.0 mi North 8.1 mph - N/A   Clear
8:53 PM 12.9 °F 0.7 °F 6.1 °F 74% 30.34 in 10.0 mi NW 9.2 mph - N/A   Scattered Clouds
9:53 PM 12.0 °F 0.5 °F 5.0 °F 73% 30.35 in 10.0 mi NNW 8.1 mph - N/A   Clear
10:53 PM 12.0 °F -0.4 °F 7.0 °F 80% 30.35 in 10.0 mi NNW 9.2 mph - N/A   Mostly Cloudy
11:27 PM 10.4 °F -1.5 °F 6.8 °F 85% 30.22 in 10.0 mi NNW 8.1 mph - N/A   Mostly Cloudy
11:53 PM 12.0 °F -1.3 °F 7.0 °F 80% 30.36 in 10.0 mi NNW 10.4 mph - N/A   Mostly Cloudy